Weather History for Evanston, WY

Change the Weather History Date:

Thursday, May 23, 2013

  Actual Average Record
Temperature  
Mean Temperature 50 °F 51 °F  
Max Temperature 70 °F 63 °F 78 °F (2003)
Min Temperature 30 °F 38 °F 24 °F (2007)
Degree Days  
Heating Degree Days 15 14  
Month to date heating degree days 333 401  
Since 1 July heating degree days 7774 8238  
Cooling Degree Days 0 0  
Month to date cooling degree days 0 0  
Year to date cooling degree days 0 0  
Moisture  
Dew Point 26 °F    
Average Humidity 50    
Maximum Humidity 78    
Minimum Humidity 22    
Precipitation  
Precipitation 0.00 in 0.06 in 0.10 in (2004)
Month to date precipitation 0.18 1.35  
Year to date precipitation 1.98 4.51  
Sea Level Pressure  
Sea Level Pressure 29.70 in    
Wind  
Wind Speed 13 mph (WNW)    
Max Wind Speed 28 mph    
Max Gust Speed 38 mph    
Visibility 10 miles    
Events      
T = Trace of Precipitation, MM = Missing Value Source: NWS Daily Summary

Daily Weather History Graph

Daily Weather History Graph

Search for Another Location

Airport:

Trip Planner

Search our weather history database for the weather conditions in past years. The results will help you decide how hot, cold, wet, or windy it might be!

Date:

Astronomy

May. 23, 2013 Rise Set
Actual Time 5:58 AM MDT 8:43 PM MDT
Civil Twilight 5:26 AM MDT 9:16 PM MDT
Nautical Twilight 4:45 AM MDT 9:56 PM MDT
Astronomical Twilight 3:59 AM MDT 10:43 PM MDT
Moon 7:19 PM MDT (5/23) 4:47 AM MDT (5/23)
Length of Visible Light 15h 49m
Length of Day
14h 45m
Waxing Gibbous, 97% of the Moon is Illuminated
May 23
Waxing Gibbous
May 24
Full
May 31
Last Quarter
Jun 8
New
Jun 16
First Quarter

Hourly Weather History & Observations

Time (MDT) Temp. Windchill Dew Point Humidity Pressure Visibility Wind Dir Wind Speed Gust Speed Precip Events Conditions
12:53 AM 37.9 °F 29.6 °F 23.0 °F 55% 29.63 in 10.0 mi NNW 13.8 mph - N/A   Clear
1:53 AM 37.0 °F 30.4 °F 21.9 °F 54% 29.65 in 10.0 mi NNW 9.2 mph - N/A   Clear
2:53 AM 35.1 °F 26.9 °F 21.9 °F 59% 29.68 in 10.0 mi North 11.5 mph - N/A   Clear
3:53 AM 34.0 °F 26.0 °F 23.0 °F 64% 29.68 in 10.0 mi NNW 10.4 mph - N/A   Clear
4:53 AM 33.1 °F 23.9 °F 24.1 °F 70% 29.70 in 10.0 mi North 12.7 mph - N/A   Clear
5:53 AM 30.9 °F 22.2 °F 25.0 °F 79% 29.73 in 10.0 mi NNW 10.4 mph - N/A   Clear
6:53 AM 30.9 °F 21.7 °F 24.1 °F 76% 29.73 in 10.0 mi North 11.5 mph - N/A   Clear
7:53 AM 35.1 °F 25.9 °F 23.0 °F 61% 29.72 in 10.0 mi North 13.8 mph - N/A   Clear
8:53 AM 39.0 °F 32.8 °F 25.0 °F 57% 29.75 in 10.0 mi NNW 9.2 mph - N/A   Clear
9:53 AM 44.1 °F 39.5 °F 26.1 °F 49% 29.74 in 10.0 mi North 8.1 mph - N/A   Clear
10:53 AM 48.0 °F - 28.0 °F 46% 29.73 in 10.0 mi NNE 4.6 mph - N/A   Clear
11:53 AM 55.0 °F - 30.0 °F 38% 29.71 in 10.0 mi Variable 5.8 mph - N/A   Clear
12:53 PM 62.1 °F - 28.0 °F 28% 29.66 in 10.0 mi WSW 10.4 mph 18.4 mph N/A   Clear
1:53 PM 66.9 °F - 28.0 °F 23% 29.62 in 10.0 mi SSW 16.1 mph 26.5 mph N/A   Partly Cloudy
2:53 PM 66.9 °F - 28.9 °F 24% 29.61 in 10.0 mi WSW 15.0 mph 32.2 mph N/A   Clear
3:53 PM 69.1 °F - 28.9 °F 22% 29.60 in 10.0 mi West 26.5 mph 34.5 mph N/A   Scattered Clouds
4:53 PM 66.0 °F - 26.1 °F 22% 29.62 in 10.0 mi WSW 25.3 mph 39.1 mph N/A   Clear
5:53 PM 63.0 °F - 28.9 °F 28% 29.65 in 10.0 mi West 21.9 mph 29.9 mph N/A   Clear
6:53 PM 62.1 °F - 28.0 °F 28% 29.65 in 10.0 mi WSW 20.7 mph - N/A   Clear
7:53 PM 57.0 °F - 28.9 °F 34% 29.67 in 10.0 mi WSW 8.1 mph - N/A   Clear
8:53 PM 54.0 °F - 28.9 °F 38% 29.70 in 10.0 mi WNW 17.3 mph 21.9 mph N/A   Clear
9:53 PM 48.0 °F - 28.9 °F 48% 29.77 in 10.0 mi West 15.0 mph - N/A   Partly Cloudy
10:53 PM 44.1 °F 37.4 °F 26.1 °F 49% 29.83 in 10.0 mi West 13.8 mph - N/A   Clear
11:53 PM 41.0 °F 35.2 °F 27.0 °F 57% 29.87 in 10.0 mi West 9.2 mph - N/A   Clear